Regional Weather Roundup
Issued by NWS Newport/Morehead, NC

Current Version | Previous Version | Text Only | Print | Product List | Glossary On
Versions: 1 2 3 4 5 6 7 8 9 10 11 12 13 14 15 16 17 18 19 20 21 22 23 24 25 26 27 28 29 30 31 32 33 34 35 36 37 38 39 40 41 42 43 44 45 46 47 48 49 50
018 ASUS42 KMHX 091013 RWRMHX WEATHER ROUNDUP FOR EASTERN NORTH CAROLINA NATIONAL WEATHER SERVICE NEWPORT/MOREHEAD CITY NC 500 AM EST TUE FEB 09 2016 NOTE: "FAIR" INDICATES FEW OR NO CLOUDS BELOW 12,000 FEET WITH NO SIGNIFICANT WEATHER AND/OR OBSTRUCTIONS TO VISIBILITY NCZ015>017-031-032-045>047-102-103-091100- NORTH COAST CITY SKY/WX TMP DP RH WIND PRES REMARKS EDENTON CLOUDY 42 42 99 W5 29.59R ELIZABETH CITY MOCLDY 39 38 96 W8 29.56F KITTY HAWK CLOUDY 42 39 87 W9 29.53S MANTEO CLOUDY 41 40 96 W9 29.55S $$ NCZ045>047-081-094-103-104-091100- CENTRAL COAST CITY SKY/WX TMP DP RH WIND PRES REMARKS FRISCO CLOUDY 43 39 86 W10G18 29.58R SWANQUARTER N/A 41 N/A N/A W6 29.56S $$ NCZ095-097-098-100-101-091100- SOUTHERN COAST CITY SKY/WX TMP DP RH WIND PRES REMARKS BEAUFORT CLEAR 42 39 89 W8 29.61R CEDAR ISLAND N/A 43 N/A N/A W9G15 29.65R JACKSONVILLE CLEAR 39 37 92 W7 29.61S PINEY ISLAND SUNNY N/A N/A N/A W12 29.59S WILMINGTON PTCLDY 41 37 86 W10 29.64R $$ NCZ011>013-027>030-043-044-078>080-089-090>093-098-091100- COASTAL PLAIN CITY SKY/WX TMP DP RH WIND PRES REMARKS AHOSKIE CLOUDY 36 35 97 CALM 29.60R FOG CLINTON MOCLDY 37 37 100 CALM 29.63R FOG ELIZABETHTOWN PTCLDY 37 37 99 SW5 29.64R GOLDSBORO MOCLDY 37 37 100 SW2 29.60R GREENVILLE PTCLDY 37 36 93 CALM 29.64S FOG HAVELOCK CLEAR 41 38 89 W9 29.62R KENANSVILLE PTCLDY 37 37 100 CALM 29.62S FOG KINSTON CLOUDY 38 38 99 CALM 29.62R FOG NEW BERN PTCLDY 39 37 92 SW6 29.61S RICHLANDS CLEAR 37 32 81 SW5 29.62R ROCKY MOUNT CLOUDY 37 35 92 CALM 29.60R WASHINGTON MOCLDY 38 37 95 CALM 29.60R WHITEVILLE CLOUDY 39 34 83 W6 29.66R $$ AMZ130-135-150-152-154-156-158-170-250-252-270-ANZ085-086-088-633-658-670-091100- MARINE OBSERVATIONS STATION/POSITION TIME TEMP WIND PRES WAVE SWELL AIR SEA DIR/SP/G HT/PER HT/PER (UTC) (F) (DEG/KT/KT) (MB) (FT/S) (FT/S) CHESAPEAKE LIGHT 1000 44 300/ 17/ 18 1000.5 64 E VA BEACH 0950 48 52 160/ 4/ 8 998.4 13/14 13/14 DUCK 0900 44 240/ 9/ 12 999.7 2 E DUCK 0911 44 N/A 9/15 7/15 OREGON INLET 0900 44 45 240/ 10/ 11 1000.2 13E OREGON INLT 1000 47 N/A 12/14 11/14 HATTERAS CG 0900 45 52 280/ 12/ 14 1000.6 DIAMOND BUOY 0950 48 73 300/ 17/ 23 1001.2 12/15 11/15 CAPE LOOKOUT NOT AVBL BEAUFORT LAB 0900 44 46 300/ 8/ 12 1000.9 30 SE NEW RVR IN 0908 51 61 1001.8 30 SE NEW RVR IN 0925 61 N/A 8/ 8 3/14 27 SE WRIGHTSVLE 0908 49 61 360/ 19/ 27 1001.8 5 SE WRIGHTSVLE 0908 46 51 280/ 16/ 23 1003.0 225 S CAPE HAT 0950 57 69 300/ 31/ 41 N/A 14/ 8 10/15 41 SE CHARLESTON 0950 50 65 280/ 25/ 31 1006.8 9/ 6 2/16 $$

USA.gov is the U.S. government's official web portal to all federal, state and local government web resources and services.